| time (UTC) | temp C | wind direction | speed KPH | gust KPH | rain 1hr cm | rain 24hr cm | rain mn cm | humidity % | barometer mb |
| 20260503213030 | 27 | 349 | 8.0 | 24.1 | 0.00 | 0.00 | 0.00 | 29 | 1012.5 |
| 20260503211529 | 27 | 355 | 6.4 | 17.7 | 0.00 | 0.00 | 0.00 | 29 | 1012.7 |
| 20260503210031 | 28 | 42 | 4.8 | 14.5 | 0.00 | 0.00 | 0.00 | 27 | 1013.0 |
| 20260503204531 | 30 | 52 | 4.8 | 14.5 | 0.00 | 0.00 | 0.00 | 26 | 1013.1 |
| 20260503203032 | 30 | 29 | 4.8 | 14.5 | 0.00 | 0.00 | 0.00 | 26 | 1013.3 |
| 20260503201530 | 30 | 75 | 6.4 | 17.7 | 0.00 | 0.00 | 0.00 | 26 | 1013.4 |
| 20260503200033 | 30 | 75 | 4.8 | 16.1 | 0.00 | 0.00 | 0.00 | 27 | 1013.6 |
| 20260503194529 | 29 | 40 | 4.8 | 16.1 | 0.00 | 0.00 | 0.00 | 27 | 1013.7 |
| 20260503193106 | 30 | 78 | 8.0 | 17.7 | 0.00 | 0.00 | 0.00 | 28 | 1013.9 |
| 20260503190036 | 28 | 19 | 4.8 | 14.5 | 0.00 | 0.00 | 0.00 | 32 | 1014.0 |
| 20260503184535 | 28 | 339 | 6.4 | 14.5 | 0.00 | 0.00 | 0.00 | 34 | 1014.2 |
| 20260503181528 | 28 | 323 | 4.8 | 12.9 | 0.00 | 0.00 | 0.00 | 39 | 1014.5 |
| 20260503180031 | 27 | 304 | 4.8 | 12.9 | 0.00 | 0.00 | 0.00 | 40 | 1014.6 |
| 20260503174530 | 27 | 310 | 4.8 | 11.3 | 0.00 | 0.00 | 0.00 | 39 | 1014.7 |
| 20260503173031 | 27 | 347 | 1.6 | 8.0 | 0.00 | 0.00 | 0.00 | 40 | 1014.8 |
| 20260503171529 | 27 | 330 | 1.6 | 8.0 | 0.00 | 0.00 | 0.00 | 39 | 1014.9 |
| 20260503140108 | 7 | 112 | 1.6 | 4.8 | 0.00 | 0.00 | 0.00 | 95 | 1015.3 |
| 20260503130106 | 6 | 127 | 3.2 | 8.0 | 0.00 | 0.00 | 0.00 | 95 | 1015.1 |
| 20260503081533 | 8 | 122 | 1.6 | 4.8 | 0.00 | 0.00 | 0.00 | 89 | 1015.3 |
| 20260503071531 | 9 | 142 | 3.2 | 4.8 | 0.00 | 0.00 | 0.00 | 84 | 1015.3 |
| 20260503054533 | 12 | 153 | 3.2 | 6.4 | 0.00 | 0.00 | 0.00 | 82 | 1015.1 |
| 20260503053036 | 12 | 128 | 3.2 | 4.8 | 0.00 | 0.00 | 0.00 | 81 | 1015.0 |
| 20260503050028 | 12 | 163 | 3.2 | 6.4 | 0.00 | 0.00 | 0.00 | 79 | 1014.9 |
| 20260503043031 | 13 | 150 | 1.6 | 4.8 | 0.00 | 0.00 | 0.00 | 77 | 1014.8 |
| 20260503041645 | 14 | 181 | 1.6 | 6.4 | 0.00 | 0.00 | 0.00 | 75 | 1014.7 |
| 20260503040039 | 15 | 129 | 0.0 | 6.4 | 0.00 | 0.00 | 0.00 | 73 | 1014.5 |
| 20260503034532 | 15 | 114 | 1.6 | 6.4 | 0.00 | 0.00 | 0.00 | 71 | 1014.2 |
| 20260503031536 | 17 | 108 | 3.2 | 6.4 | 0.00 | 0.00 | 0.00 | 70 | 1013.7 |
| 20260503030108 | 18 | 127 | 1.6 | 4.8 | 0.00 | 0.00 | 0.00 | 66 | 1013.4 |
| 20260503024533 | 19 | 141 | 1.6 | 4.8 | 0.00 | 0.00 | 0.00 | 63 | 1013.2 |
| 20260503023032 | 20 | 180 | 3.2 | 4.8 | 0.00 | 0.00 | 0.00 | 59 | 1013.1 |
| 20260503021528 | 21 | 174 | 1.6 | 4.8 | 0.00 | 0.00 | 0.00 | 57 | 1013.0 |
| 20260503020031 | 22 | 90 | 0.0 | 3.2 | 0.00 | 0.00 | 0.00 | 54 | 1013.0 |
| 20260503014606 | 22 | 90 | 0.0 | 1.6 | 0.00 | 0.00 | 0.00 | 49 | 1013.0 |
| 20260503013143 | 23 | 90 | 0.0 | 6.4 | 0.00 | 0.00 | 0.00 | 44 | 1013.0 |
| 20260503011532 | 25 | 74 | 0.0 | 4.8 | 0.00 | 0.00 | 0.00 | 38 | 1012.9 |
| 20260503010028 | 25 | 75 | 1.6 | 9.7 | 0.00 | 0.00 | 0.00 | 38 | 1013.0 |
| 20260503004530 | 25 | 81 | 0.0 | 4.8 | 0.00 | 0.00 | 0.00 | 38 | 1013.0 |
| 20260503003029 | 25 | 73 | 0.0 | 4.8 | 0.00 | 0.00 | 0.00 | 36 | 1013.0 |
| 20260503001531 | 25 | 59 | 1.6 | 9.7 | 0.00 | 0.00 | 0.00 | 35 | 1013.0 |
| 20260503000038 | 25 | 11 | 4.8 | 14.5 | 0.00 | 0.00 | 0.00 | 35 | 1013.0 |
| 20260502234607 | 25 | 27 | 3.2 | 11.3 | 0.00 | 0.00 | 0.00 | 35 | 1013.2 |
| 20260502233039 | 25 | 355 | 4.8 | 16.1 | 0.00 | 0.00 | 0.00 | 34 | 1013.3 |
| 20260502231530 | 26 | 357 | 3.2 | 12.9 | 0.00 | 0.00 | 0.00 | 34 | 1013.5 |
| 20260502230037 | 26 | 21 | 3.2 | 14.5 | 0.00 | 0.00 | 0.00 | 35 | 1013.6 |
| 20260502224530 | 26 | 69 | 4.8 | 24.1 | 0.00 | 0.00 | 0.00 | 35 | 1013.8 |
| 20260502223033 | 25 | 83 | 6.4 | 20.9 | 0.00 | 0.00 | 0.00 | 35 | 1013.8 |
| 20260502221530 | 25 | 50 | 4.8 | 16.1 | 0.00 | 0.00 | 0.00 | 41 | 1014.0 |
| 20260502214532 | 24 | 329 | 3.2 | 11.3 | 0.00 | 0.00 | 0.00 | 46 | 1014.4 |